Location: Napier
(39.4830°S, 176.9170°E)
Time: 14:40:21
(UTC+13:00)

USA 238 - Pass Details

Date: 24 January 2019
Orbit: 1046 x 1166 km, 63.4° (Epoch: 17 February)

Event Time Altitude Azimuth Distance (km) Brightness Sun altitude
Rises 22:13:34 0° 350° (N) 4,027 6.4 -16.3°
Reaches altitude 10° 22:16:24 10° 356° (N) 3,070 5.7 -16.7°
Maximum altitude 22:23:18 45° 65° (ENE) 1,544 4.1 -17.7°
Drops below altitude 10° 22:30:09 10° 135° (SE) 3,050 6.1 -18.6°
Sets 22:32:57 0° 140° (SE) 3,999 6.8 -19.0°
